Weather History for KRAC - August, 2013

Change the Weather History Date:

Monday, August 26, 2013

  Actual Average (KMKE) Record (KMKE)
Temperature  
Mean Temperature 82 °F 70 °F  
Max Temperature 90 °F 78 °F 96 °F (1953)
Min Temperature 73 °F 62 °F 47 °F (1964)
Degree Days  
Heating Degree Days 0 1  
Month to date heating degree days 5  
Since 1 June heating degree days 100  
Since 1 July heating degree days 16  
Cooling Degree Days 16 5  
Month to date cooling degree days 169  
Year to date cooling degree days 541  
Since 1 June cooling degree days 511  
Growing Degree Days 32 (Base 50)    
Moisture  
Dew Point 68 °F    
Average Humidity 67    
Maximum Humidity 79    
Minimum Humidity 54    
Precipitation  
Precipitation 0.00 in 0.12 in 1.77 in (1921)
Month to date precipitation 3.37  
Year to date precipitation 23.58  
Snow  
Snow 0.00 in 0.00 in 0.00 in ()
Month to date snowfall 0.0  
Since 1 June snowfall 0.0  
Since 1 July snowfall 0.0  
Snow Depth -    
Sea Level Pressure  
Sea Level Pressure 30.06 in    
Wind  
Wind Speed 9 mph (WSW)    
Max Wind Speed 14 mph    
Max Gust Speed 21 mph    
Visibility 10 miles    
Events      
T = Trace of Precipitation, MM = Missing Value Source: NWS Daily Summary

Daily Weather History Graph

Daily Weather History Graph

Search for Another Location

Airport or City:

Trip Planner

Search our weather history database for the weather conditions in past years. The results will help you decide how hot, cold, wet, or windy it might be!

Date:

Astronomy

Aug. 26, 2013 Rise Set
Actual Time 6:09 AM CDT 7:35 PM CDT
Civil Twilight 5:40 AM CDT 8:04 PM CDT
Nautical Twilight 5:04 AM CDT 8:40 PM CDT
Astronomical Twilight 4:26 AM CDT 9:17 PM CDT
Moon 10:35 PM CDT (8/26) 12:20 PM CDT (8/26)
Length of Visible Light 14h 24m
Length of Day
13h 25m
Waning Gibbous, 66% of the Moon is Illuminated
Aug 26
Waning Gibbous
Aug 28
Last Quarter
Sep 5
New
Sep 12
First Quarter
Sep 19
Full

Hourly Weather History & Observations

Time (CDT) Temp. Heat Index Dew Point Humidity Pressure Visibility Wind Dir Wind Speed Gust Speed Precip Events Conditions
12:53 AM 75.9 °F - 66.0 °F 71% 30.11 in 10.0 mi SW 9.2 mph - N/A   Clear
1:53 AM 75.0 °F - 64.9 °F 71% 30.09 in 10.0 mi WSW 10.4 mph - N/A   Clear
2:53 AM 75.0 °F - 64.0 °F 69% 30.11 in 10.0 mi WSW 9.2 mph 17.3 mph N/A   Clear
3:53 AM 75.0 °F - 63.0 °F 66% 30.09 in 10.0 mi SW 12.7 mph 19.6 mph N/A   Clear
4:53 AM 73.9 °F - 63.0 °F 68% 30.10 in 10.0 mi WSW 9.2 mph 20.7 mph N/A   Clear
5:53 AM 73.0 °F - 63.0 °F 71% 30.10 in 10.0 mi WSW 11.5 mph - N/A   Clear
6:53 AM 73.9 °F - 63.0 °F 68% 30.11 in 10.0 mi WSW 12.7 mph 20.7 mph N/A   Clear
7:53 AM 73.9 °F - 64.0 °F 71% 30.11 in 10.0 mi WSW 9.2 mph - N/A   Clear
8:53 AM 77.0 °F - 64.9 °F 66% 30.11 in 10.0 mi West 8.1 mph - N/A   Mostly Cloudy
9:53 AM 80.1 °F 82.3 °F 66.9 °F 64% 30.12 in 10.0 mi West 5.8 mph - N/A   Mostly Cloudy
10:53 AM 82.9 °F 86.5 °F 69.1 °F 63% 30.13 in 10.0 mi West 8.1 mph - N/A   Clear
11:53 AM 82.9 °F 86.5 °F 69.1 °F 63% 30.11 in - West 5.8 mph - N/A   Clear
12:53 PM 82.9 °F 87.0 °F 70.0 °F 65% 30.08 in - WSW 5.8 mph - N/A   Clear
1:53 PM 84.9 °F 90.1 °F 71.1 °F 63% 30.03 in - Variable 6.9 mph - N/A   Clear
2:53 PM 88.0 °F 93.8 °F 71.1 °F 57% 30.01 in - SW 10.4 mph - N/A   Clear
3:53 PM 90.0 °F 96.4 °F 71.1 °F 54% 30.00 in 10.0 mi WSW 13.8 mph 19.6 mph N/A   Clear
4:53 PM 90.0 °F 96.9 °F 72.0 °F 55% 29.99 in 10.0 mi West 12.7 mph 17.3 mph N/A   Clear
5:53 PM 89.1 °F 97.0 °F 73.0 °F 59% 30.00 in 10.0 mi SW 11.5 mph - N/A   Clear
6:53 PM 86.0 °F 92.2 °F 72.0 °F 63% 29.99 in 10.0 mi SW 5.8 mph - N/A   Clear
7:53 PM 82.0 °F 86.7 °F 72.0 °F 71% 29.99 in 10.0 mi SSW 5.8 mph - N/A   Clear
8:53 PM 80.1 °F 83.8 °F 72.0 °F 76% 29.99 in 10.0 mi SSW 8.1 mph - N/A   Clear
9:53 PM 80.1 °F 83.8 °F 72.0 °F 76% 29.99 in 10.0 mi SW 9.2 mph - N/A   Clear
10:53 PM 79.0 °F - 72.0 °F 79% 29.99 in 10.0 mi SW 8.1 mph - N/A   Clear
11:53 PM 79.0 °F - 72.0 °F 79% 29.98 in 10.0 mi SW 8.1 mph - N/A   Clear